Wind_Speed
7 9 12 13 14 13 13 14 14 15 13 12 10 9 8 7 6 4 3 2 2 2 4 6 7 8 8 9 9 8 9 10 12 12 14 16 17 18 18 18 17 15 14
4 6 9 11 12 12 13 13 14 14 14 13 11 9 9 8 7 5 4 3 2 2 3 5 6 8 9 10 10 9 9 8 9 10 12 13 15 16 17 17 16 16 15
2 4 7 9 11 11 12 13 13 14 14 13 11 10 9 8 7 6 4 3 3 3 3 3 4 6 7 10 10 10 9 7 7 7 9 11 13 14 16 16 16 16 15
0 2 4 7 9 10 11 12 13 13 13 13 12 10 9 8 7 7 5 4 4 3 3 3 4 3 5 9 11 11 10 9 7 6 6 7 8 10 12 13 14 16 16
1 2 2 5 7 8 10 11 12 13 13 12 12 10 9 8 8 7 6 5 4 4 3 3 3 2 3 7 10 11 12 11 9 7 6 5 6 6 7 8 9 12 13
1 2 1 3 5 7 8 9 11 12 12 12 12 10 9 8 8 8 7 5 4 4 3 3 2 1 2 4 8 11 12 12 11 8 7 6 5 5 5 6 7 9 10
1 1 0 2 3 5 7 8 9 10 11 12 11 10 9 9 8 8 7 6 5 4 4 3 2 2 2 3 6 8 10 11 12 10 8 8 7 6 6 6 7 7 8
3 1 2 2 3 4 6 7 8 9 10 10 11 11 10 9 8 8 7 6 5 4 4 3 3 2 3 4 4 7 9 10 11 11 10 9 9 8 8 7 7 7 7
5 3 4 4 5 5 6 6 7 8 9 9 10 10 10 9 8 8 7 7 6 5 4 3 3 3 4 5 5 6 8 9 9 10 11 10 10 10 9 9 9 8 8
7 5 6 6 6 6 7 7 7 8 8 9 9 9 9 9 8 7 7 7 6 5 4 3 3 4 5 6 6 6 7 8 9 9 9 10 10 10 9 10 10 9 9
8 8 8 8 8 8 8 9 9 9 9 9 9 9 9 8 8 7 6 6 6 5 4 3 4 5 7 7 8 8 9 9 9 9 9 9 9 9 9 9 10 10 10
9 9 9 10 10 10 10 11 11 11 11 10 9 9 9 8 8 7 6 5 5 5 4 4 4 6 7 8 9 10 10 11 11 11 11 10 10 9 8 7 8 8 8
11 10 10 11 12 13 13 13 13 12 12 12 11 10 9 8 8 7 6 5 5 4 4 4 5 6 7 8 9 11 12 13 13 13 13 13 12 12 10 9 8 8 8
13 13 13 13 14 15 15 15 15 15 14 13 12 11 10 10 9 8 6 6 5 5 4 5 5 6 7 8 10 11 13 14 15 16 15 15 15 15 14 13 12 11 10
15 15 15 15 15 16 16 16 16 16 15 14 13 12 12 11 10 9 8 7 6 6 5 5 6 7 7 9 10 11 13 14 16 17 18 18 17 17 17 17 16 15 14
18 17 17 17 17 17 17 17 17 17 16 15 14 13 13 13 12 12 10 9 8 7 7 7 7 8 8 9 10 11 13 14 15 17 18 18 19 19 20 20 19 19 18
19 19 19 18 18 18 18 18 18 17 17 16 15 14 14 14 14 14 13 12 11 10 9 9 10 10 10 10 11 12 13 14 15 16 17 18 19 19 20 21 21 21 20
20 19 20 19 19 19 18 18 18 18 17 16 16 16 15 15 15 15 16 15 14 14 13 12 12 13 12 12 12 13 14 15 16 17 17 18 19 19 20 21 21 22 22
21 20 19 19 20 20 19 19 19 18 17 16 16 17 16 17 17 17 17 17 17 17 17 16 15 15 14 14 14 14 15 16 16 17 18 18 19 19 20 20 21 21 22
22 21 20 20 21 21 21 21 21 20 19 18 18 18 18 18 19 19 19 19 19 19 20 20 19 18 17 17 17 16 16 17 17 18 19 19 20 20 20 21 21 21 21
25 23 22 21 22 23 23 22 22 22 21 20 20 19 20 20 21 21 21 21 21 21 22 22 21 21 20 20 19 18 18 18 18 18 19 20 20 20 20 20 21 21 21
28 26 24 24 24 25 25 25 25 24 23 23 22 22 22 22 22 22 22 22 23 23 23 23 23 24 23 23 22 20 19 19 19 19 20 20 20 20 20 20 20 21 21
31 29 27 27 27 28 28 28 27 26 26 25 24 23 23 22 23 22 23 23 24 24 25 25 26 26 26 25 24 22 22 21 21 21 20 21 21 21 20 20 20 21 22
33 32 31 31 30 31 32 31 30 29 28 26 24 24 23 23 24 24 24 24 24 25 26 26 27 26 27 27 26 25 25 23 22 22 21 21 22 21 20 20 20 21 23
34 35 34 33 35 35 35 35 34 30 27 24 23 23 23 23 23 24 24 25 25 26 26 26 26 27 28 28 28 28 27 26 25 24 23 23 23 23 21 20 20 20 22
36 37 36 37 38 37 38 39 34 26 23 22 22 21 22 22 23 23 24 25 26 26 26 26 25 26 27 28 29 30 29 27 26 25 24 23 23 23 22 21 20 20 21
Wind_Direction
46 47 45 42 41 43 43 43 45 47 48 47 45 42 37 35 35 35 26 3 322 269 249 245 247 250 249 240 235 235 230 231 232 233 235 235 234 237 240 243 246 248 248
43 47 44 41 39 40 40 40 41 42 43 44 43 38 32 28 27 28 22 1 337 303 272 260 257 255 246 236 231 229 230 234 233 238 234 233 233 236 238 240 242 244 242
46 51 45 40 37 38 37 38 38 38 40 41 40 37 31 27 23 22 19 6 346 325 303 284 275 261 241 229 226 225 227 233 236 240 236 235 235 237 239 240 240 238 236
130 80 53 41 36 34 34 34 34 36 38 38 37 35 33 30 25 22 19 11 2 345 328 308 292 273 237 225 224 224 226 230 239 236 227 232 232 237 237 238 238 234 231
172 138 69 43 36 32 30 29 29 31 33 34 34 33 31 30 27 24 21 15 7 358 342 326 316 287 237 227 226 223 225 226 232 230 227 227 236 240 237 232 229 227 221
151 161 91 35 31 28 27 24 24 26 28 30 30 30 29 27 26 25 22 18 9 0 353 341 322 292 258 228 222 223 225 228 232 237 239 237 245 253 245 237 222 217 211
42 192 282 353 12 17 19 18 19 21 22 24 24 25 26 27 27 27 27 22 12 357 347 343 321 295 266 234 220 222 229 233 237 242 243 243 244 250 247 240 218 213 213
10 314 299 314 337 356 6 10 11 14 16 18 19 20 21 22 26 27 29 24 15 2 344 335 317 284 257 238 223 223 231 236 239 240 242 244 245 249 250 240 223 218 214
360 326 302 301 311 327 343 354 358 0 4 6 9 12 14 17 21 26 27 25 18 4 345 326 309 277 256 245 236 231 234 239 241 242 242 244 247 250 250 239 228 219 216
358 335 310 300 301 308 320 331 337 341 345 349 353 358 3 10 15 21 24 23 19 8 349 321 289 267 256 249 243 238 237 240 243 242 242 244 247 246 246 240 229 221 215
352 338 322 306 298 299 304 311 315 320 326 331 336 342 350 359 6 10 15 19 16 8 352 320 281 263 256 251 246 241 240 239 243 245 246 250 249 248 248 240 230 224 220
343 335 325 311 300 295 296 299 303 306 309 314 319 325 332 342 352 356 359 7 9 1 345 316 287 272 265 258 251 246 241 239 241 244 246 249 251 253 251 243 234 231 230
332 329 322 313 302 296 294 294 296 298 297 300 304 308 316 325 333 342 348 352 352 344 329 312 294 281 273 266 257 251 246 243 243 245 246 247 247 248 246 243 243 245 248
323 321 317 311 304 297 293 292 292 292 291 292 294 296 299 308 315 321 332 338 338 331 319 308 298 288 280 272 263 257 252 248 245 245 246 246 246 247 246 245 246 249 252
316 314 311 306 302 296 292 290 289 289 289 289 290 288 288 292 298 302 309 316 321 322 316 305 296 290 283 277 271 265 260 254 249 246 245 246 246 246 247 247 248 251 252
308 308 305 301 299 295 290 288 286 286 286 285 286 284 283 282 285 287 289 295 304 312 313 304 299 292 286 281 276 271 265 259 253 248 246 245 246 247 247 248 249 250 250
299 301 300 298 296 293 289 286 284 282 281 281 282 281 280 277 277 280 282 285 292 299 304 301 297 295 288 282 279 275 269 263 257 252 248 247 247 248 248 248 249 249 248
291 293 294 294 292 290 286 283 281 279 277 278 279 279 280 277 276 279 279 278 281 286 291 293 291 291 289 285 281 277 272 267 261 256 252 249 248 248 248 248 248 248 247
286 287 288 287 286 285 282 279 277 276 275 275 276 276 277 277 277 276 276 273 275 278 280 283 284 286 287 286 284 278 273 268 263 258 253 250 249 248 248 248 248 247 246
283 283 282 281 280 280 278 275 273 272 272 272 273 274 275 276 275 275 275 271 273 274 275 279 282 284 283 282 281 278 274 269 263 259 254 251 250 249 249 249 248 247 245
273 276 276 276 275 274 273 272 270 270 269 270 270 271 272 274 275 275 272 271 272 273 274 276 279 282 281 278 277 275 272 269 265 260 255 251 250 250 251 250 248 245 243
269 268 270 270 270 270 269 269 267 266 267 267 268 267 269 270 272 271 270 270 271 272 273 275 277 278 278 276 273 270 267 267 266 262 256 251 251 251 252 250 248 244 242
264 263 263 264 266 267 266 264 262 262 262 263 265 267 268 269 270 269 269 269 270 271 272 274 274 275 275 275 271 266 262 262 264 262 257 251 250 251 252 251 247 243 240
257 255 255 257 260 260 260 259 256 255 255 257 262 265 267 268 269 269 270 270 271 272 273 272 273 273 274 274 270 267 263 258 257 258 257 253 250 251 251 251 248 243 240
251 251 252 251 253 253 254 256 252 251 251 255 260 264 266 268 270 272 273 274 276 276 276 275 274 272 272 271 271 271 262 257 255 253 255 255 250 250 250 249 248 244 240
248 248 248 250 249 247 250 251 249 248 252 256 259 264 267 269 272 274 276 277 279 279 279 278 276 273 272 272 272 271 266 263 257 253 251 253 250 249 247 246 246 244 240
Height
5888 5887 5887 5887 5886 5885 5884 5883 5882 5881 5881 5881 5881 5881 5881 5881 5881 5881 5882 5882 5882 5883 5884 5885 5886 5887 5887 5889 5890 5891 5892 5893 5895 5896 5897 5899 5901 5903 5904 5906 5908 5909 5911
5888 5888 5888 5887 5887 5886 5885 5884 5883 5882 5882 5881 5881 5881 5881 5881 5881 5882 5882 5882 5882 5882 5883 5884 5885 5885 5886 5887 5889 5890 5891 5892 5893 5894 5895 5897 5898 5900 5902 5904 5905 5907 5909
5888 5888 5888 5888 5888 5887 5886 5885 5885 5883 5883 5882 5881 5881 5881 5881 5881 5881 5881 5882 5882 5882 5882 5883 5883 5884 5884 5886 5887 5889 5890 5892 5892 5893 5894 5895 5897 5898 5900 5901 5903 5905 5907
5888 5889 5889 5889 5888 5888 5887 5886 5886 5884 5884 5883 5882 5882 5881 5881 5881 5881 5881 5881 5882 5882 5882 5882 5882 5883 5883 5884 5886 5888 5889 5891 5892 5892 5893 5895 5896 5897 5898 5899 5900 5902 5904
5888 5888 5889 5889 5889 5888 5888 5887 5886 5885 5885 5884 5883 5882 5882 5881 5881 5881 5881 5881 5881 5881 5881 5881 5882 5882 5882 5883 5885 5886 5888 5889 5891 5892 5893 5894 5895 5896 5897 5898 5899 5900 5902
5888 5889 5889 5889 5889 5889 5888 5888 5887 5886 5885 5885 5884 5883 5882 5882 5881 5881 5880 5881 5881 5881 5881 5881 5881 5881 5882 5882 5884 5885 5887 5888 5890 5891 5892 5894 5894 5895 5896 5897 5898 5899 5901
5888 5889 5889 5889 5889 5889 5889 5888 5888 5887 5886 5885 5884 5884 5883 5882 5881 5881 5880 5880 5880 5880 5880 5880 5880 5881 5881 5882 5883 5884 5886 5887 5889 5890 5891 5893 5894 5895 5896 5897 5897 5898 5899
5889 5889 5890 5890 5890 5889 5889 5889 5888 5887 5887 5886 5885 5884 5883 5882 5881 5881 5880 5880 5879 5879 5880 5880 5880 5880 5880 5881 5882 5883 5885 5886 5887 5889 5890 5891 5893 5894 5895 5896 5896 5897 5898
5889 5889 5889 5890 5890 5889 5889 5889 5888 5888 5887 5886 5885 5884 5883 5882 5881 5880 5880 5879 5879 5879 5879 5879 5880 5880 5880 5880 5881 5882 5884 5885 5886 5888 5889 5890 5891 5892 5893 5894 5895 5896 5897
5889 5889 5889 5889 5889 5889 5889 5888 5888 5887 5887 5886 5886 5885 5883 5882 5881 5880 5879 5879 5878 5878 5878 5878 5879 5879 5879 5879 5880 5881 5882 5884 5885 5886 5888 5888 5889 5890 5891 5892 5893 5894 5896
5889 5888 5888 5888 5888 5888 5888 5888 5887 5887 5886 5886 5885 5884 5883 5882 5881 5880 5879 5878 5878 5877 5877 5877 5877 5877 5877 5878 5879 5880 5881 5882 5884 5885 5886 5887 5888 5888 5889 5890 5892 5893 5894
5888 5887 5887 5887 5887 5886 5886 5886 5886 5886 5885 5885 5884 5883 5883 5882 5881 5880 5879 5878 5877 5877 5876 5876 5876 5876 5876 5876 5877 5878 5879 5880 5881 5883 5884 5885 5886 5887 5888 5889 5890 5891 5893
5887 5886 5886 5885 5885 5885 5885 5884 5884 5884 5883 5883 5883 5882 5881 5881 5880 5879 5878 5877 5876 5876 5875 5874 5874 5874 5874 5875 5875 5876 5877 5878 5879 5880 5881 5883 5884 5885 5886 5888 5889 5890 5891
5885 5884 5884 5883 5883 5883 5882 5882 5882 5882 5881 5881 5881 5880 5880 5879 5879 5878 5877 5876 5875 5874 5873 5873 5872 5872 5872 5873 5873 5873 5874 5875 5876 5877 5878 5880 5881 5882 5884 5886 5887 5888 5890
5883 5882 5881 5881 5880 5880 5880 5879 5879 5879 5879 5879 5878 5878 5878 5877 5877 5876 5875 5874 5874 5873 5872 5871 5870 5870 5870 5870 5870 5871 5871 5872 5872 5873 5875 5876 5878 5879 5881 5883 5884 5886 5887
5880 5879 5878 5878 5877 5877 5876 5876 5876 5876 5876 5876 5875 5875 5875 5875 5874 5874 5873 5872 5872 5871 5870 5869 5868 5868 5868 5868 5868 5868 5868 5868 5869 5870 5871 5872 5874 5875 5877 5879 5880 5882 5884
5876 5875 5875 5874 5874 5873 5873 5873 5873 5872 5872 5872 5872 5872 5872 5872 5871 5871 5871 5870 5869 5868 5867 5867 5866 5866 5865 5865 5865 5865 5865 5866 5866 5867 5868 5869 5870 5871 5872 5874 5876 5878 5879
5873 5872 5871 5870 5870 5870 5869 5869 5868 5868 5868 5868 5868 5868 5868 5868 5868 5868 5867 5866 5866 5865 5865 5864 5864 5863 5863 5862 5862 5862 5862 5862 5863 5863 5864 5865 5866 5867 5868 5869 5871 5873 5874
5869 5868 5867 5866 5866 5865 5865 5864 5864 5864 5864 5865 5865 5864 5864 5864 5864 5863 5863 5863 5862 5862 5862 5861 5861 5860 5860 5859 5859 5858 5859 5859 5859 5860 5861 5861 5862 5863 5864 5865 5866 5868 5870
5864 5863 5863 5862 5861 5861 5860 5859 5859 5859 5859 5860 5860 5860 5860 5860 5859 5859 5859 5858 5858 5858 5857 5857 5857 5857 5856 5856 5855 5855 5855 5855 5856 5856 5857 5857 5858 5859 5860 5861 5862 5863 5865
5858 5858 5858 5857 5856 5856 5855 5854 5854 5854 5854 5854 5854 5855 5855 5855 5855 5854 5854 5854 5854 5853 5853 5853 5852 5852 5852 5852 5851 5851 5851 5851 5851 5852 5853 5853 5854 5854 5855 5856 5857 5859 5860
5852 5852 5852 5852 5851 5850 5849 5849 5848 5848 5848 5848 5848 5848 5849 5849 5849 5849 5849 5849 5849 5849 5848 5847 5847 5847 5846 5846 5846 5846 5846 5847 5846 5847 5848 5849 5849 5850 5851 5852 5853 5854 5856
5844 5845 5845 5845 5845 5844 5843 5842 5841 5841 5841 5841 5842 5842 5843 5843 5843 5844 5844 5844 5844 5844 5843 5843 5842 5841 5841 5840 5840 5841 5841 5841 5841 5842 5843 5844 5845 5845 5846 5847 5848 5850 5852
5835 5836 5837 5838 5837 5837 5836 5835 5834 5834 5834 5835 5836 5837 5837 5838 5838 5838 5838 5838 5838 5838 5838 5837 5836 5836 5835 5835 5834 5834 5835 5835 5836 5836 5838 5838 5840 5841 5842 5843 5844 5845 5847
5825 5827 5828 5829 5829 5829 5829 5828 5826 5825 5826 5828 5830 5831 5831 5832 5832 5832 5832 5832 5832 5831 5831 5831 5830 5830 5829 5828 5828 5827 5827 5828 5829 5831 5832 5833 5834 5835 5837 5838 5839 5840 5842
5815 5817 5818 5820 5820 5820 5820 5820 5819 5818 5820 5822 5824 5824 5825 5826 5826 5826 5826 5826 5826 5825 5824 5824 5824 5824 5823 5823 5822 5821 5821 5821 5823 5824 5826 5827 5829 5830 5832 5833 5835 5836 5837